This demonstration page uses our WeatherBlox Daily Observations layout. Learn more.

Left ArrowRight Arrow

Hourly Observations for March 10, 2020

Temp ( °F °C ) Dew Point ( °F °C ) Humidity (%) Winds ( mph kmh ) Pressure ( in mb ) Visibility ( mi km ) Precip ( " mm )
12:53 am 00:53 Mostly Cloudy 22 -5.6 18 -7.8 85 85 NNE 3 6 30.18 1022 10 16 N/A
1:53 am 01:53 Partly Cloudy 20 -6.7 16 -8.9 85 85 N N/A 30.17 1022 10 16 N/A
2:53 am 02:53 Clear 17 -8.3 14 -10 88 88 N N/A 30.17 1022 10 16 N/A
3:53 am 03:53 Mostly Cloudy 18 -7.8 14 -10 84 84 N N/A 30.15 1021 10 16 N/A
4:53 am 04:53 Mostly Cloudy 20 -6.7 16 -8.9 85 85 N N/A 30.14 1021 10 16 N/A
5:53 am 05:53 Mostly Clear 20 -6.7 16 -8.9 85 85 WNW 3 6 30.14 1021 10 16 N/A
6:53 am 06:53 Clear 20 -6.7 16 -8.9 85 85 W 7 11 30.14 1021 10 16 N/A
7:53 am 07:53 Sunny 20 -6.7 16 -8.9 85 85 WSW 9 15 30.14 1021 10 16 N/A
8:53 am 08:53 Sunny 26 -3.3 19 -7.2 75 75 WSW 9 15 30.12 1020 10 16 N/A
9:53 am 09:53 Sunny 32 undefined 20 -6.7 61 61 SW 15 24 30.10 1019 10 16 N/A
10:53 am 10:53 Sunny 36 2.2 20 -6.7 52 52 SW 18 30 30.07 1018 10 16 N/A
11:53 am 11:53 Sunny 38 3.3 22 -5.6 52 52 SW 21 33 30.04 1017 10 16 N/A
12:53 pm 12:53 Sunny 43 6.1 21 -6.1 42 42 WSW 21 33 30.00 1016 10 16 N/A
1:53 pm 13:53 Sunny 47 8.3 15 -9.4 28 28 WSW 25 41 29.96 1014 10 16 N/A
2:53 pm 14:53 Sunny 48 8.9 16 -8.9 28 28 W 23 37 29.92 1013 10 16 N/A
3:53 pm 15:53 Sunny 47 8.3 17 -8.3 30 30 W 18 30 29.91 1013 10 16 N/A
4:53 pm 16:53 Sunny 46 7.8 21 -6.1 37 37 WSW 17 28 29.89 1012 10 16 N/A
5:53 pm 17:53 Sunny 48 8.9 23 -5 37 37 WSW 20 31 29.87 1011 10 16 N/A
6:53 pm 18:53 Mostly Sunny 43 6.1 23 -5 45 45 WSW 17 28 29.85 1011 10 16 N/A
7:53 pm 19:53 Clear 41 5 24 -4.4 51 51 SW 15 24 29.85 1011 10 16 N/A
8:53 pm 20:53 Clear 42 5.6 23 -5 47 47 SW 18 30 29.82 1010 10 16 N/A
9:53 pm 21:53 Clear 41 5 23 -5 49 49 WSW 21 33 29.79 1009 10 16 N/A
10:53 pm 22:53 Clear 40 4.4 23 -5 51 51 SW 15 24 29.79 1009 10 16 N/A
11:53 pm 23:53 Clear 40 4.4 24 -4.4 53 53 WSW 17 28 29.78 1009 10 16 N/A

Powered by AerisWeather